^^
Station Historical Data
 
Daily Summary for March 21, 2019 Units:  Metric    English   Both
« Previous Day
Next Day »
Daily Weekly Monthly Yearly Custom
  Current: High: Low: Average:
Temperature: 28.6 °C -17.8 °C 16.7 °C 24.7 °C
Dew Point: 2 °C -17.8 °C 2 °C 8 °C
Humidity: 18% Humidity% 14% 39%
Wind Speed: 6.4km/h 0km/h 0km/h 8.2km/h
Wind Gust: 11.3km/h 0km/h - -
WindSSW - - SSW
Pressure: 1009 hPa 0 hPa 1007.3 hPa -
Precipitation: 0 mm      
Historical Graphs
 
 
Tabular Data for March 21, 2019
Time Temperature Dew Point Pressure Wind Wind Speed Wind Gust Humidity Rainfall Rate (Hourly) solar Conditions
-17.8 °C -17.8 °C 0 hPa Calm     Humidity% 0 mm SolarRadiationWatts/m^2 W/m2 Conditions
00:03 21.7 °C 10.8 °C 1009.7 hPa SSW 16.3 km/h 17.7 km/h 50% 0 mm 0.00 W/m2
00:09 21.6 °C 10.7 °C 1009.7 hPa SSW 11.1 km/h 16.1 km/h 50% 0 mm 0.00 W/m2
00:13 21.6 °C 11 °C 1009.7 hPa SSW 14.3 km/h 16.1 km/h 51% 0 mm 0.00 W/m2
00:19 21.5 °C 10.9 °C 1009.7 hPa SSW 9.7 km/h 16.1 km/h 51% 0 mm 0.00 W/m2
00:23 21.4 °C 10.8 °C 1009.7 hPa SSW 13 km/h 12.9 km/h 51% 0 mm 0.00 W/m2
00:28 21.3 °C 10.8 °C 1009.7 hPa SSW 13 km/h 12.9 km/h 51% 0 mm 0.00 W/m2
00:34 21.2 °C 11 °C 1009.7 hPa SSW 13 km/h 16.1 km/h 52% 0 mm 0.00 W/m2
00:38 21.1 °C 10.9 °C 1009.7 hPa SSW 9.7 km/h 12.9 km/h 52% 0 mm 0.00 W/m2
00:44 21 °C 10.5 °C 1009.7 hPa SSW 11.1 km/h 12.9 km/h 51% 0 mm 0.00 W/m2
00:48 20.9 °C 10.4 °C 1009.7 hPa SSW 9.7 km/h 14.5 km/h 51% 0 mm 0.00 W/m2
00:54 20.8 °C 10 °C 1009.4 hPa SSW 11.1 km/h 16.1 km/h 50% 0 mm 0.00 W/m2
00:59 20.8 °C 10 °C 1009.4 hPa SSW 9.7 km/h 14.5 km/h 50% 0 mm 0.00 W/m2
01:03 20.8 °C 10 °C 1009.4 hPa SSW 9.7 km/h 14.5 km/h 50% 0 mm 0.00 W/m2
01:09 20.7 °C 9.9 °C 1009.4 hPa SSW 9.7 km/h 12.9 km/h 50% 0 mm 0.00 W/m2
01:13 20.6 °C 9.8 °C 1009.4 hPa SSW 9.7 km/h 14.5 km/h 50% 0 mm 0.00 W/m2
01:19 20.5 °C 9.7 °C 1009.4 hPa SSW 9.7 km/h 12.9 km/h 50% 0 mm 0.00 W/m2
01:23 20.5 °C 10 °C 1009.4 hPa SSW 11.1 km/h 12.9 km/h 51% 0 mm 0.00 W/m2
01:29 20.4 °C 9.6 °C 1009.4 hPa SSW 11.1 km/h 11.3 km/h 50% 0 mm 0.00 W/m2
01:34 20.4 °C 9.9 °C 1009.4 hPa SSW 9.7 km/h 11.3 km/h 51% 0 mm 0.00 W/m2
01:38 20.3 °C 9.8 °C 1009.4 hPa SSW 7.9 km/h 9.7 km/h 51% 0 mm 0.00 W/m2
01:44 20.2 °C 9.7 °C 1009.4 hPa SSW 7.9 km/h 11.3 km/h 51% 0 mm 0.00 W/m2
01:49 20.1 °C 9.6 °C 1009.4 hPa SSW 6.4 km/h 8 km/h 51% 0 mm 0.00 W/m2
01:53 19.9 °C 9.8 °C 1009.4 hPa SSW 4.7 km/h 8 km/h 52% 0 mm 0.00 W/m2
01:59 19.8 °C 9.7 °C 1009 hPa SSW 7.9 km/h 8 km/h 52% 0 mm 0.00 W/m2
02:03 19.7 °C 9.9 °C 1009 hPa SSW 7.9 km/h 12.9 km/h 53% 0 mm 0.00 W/m2
02:09 19.7 °C 9.9 °C 1009.4 hPa SSW 7.9 km/h 12.9 km/h 53% 0 mm 0.00 W/m2
02:13 19.8 °C 9.7 °C 1009 hPa SSW 9.7 km/h 16.1 km/h 52% 0 mm 0.00 W/m2
02:19 19.9 °C 9.8 °C 1009 hPa SSW 14.3 km/h 16.1 km/h 52% 0 mm 0.00 W/m2
02:23 19.9 °C 9.8 °C 1009 hPa SSW 11.1 km/h 16.1 km/h 52% 0 mm 0.00 W/m2
02:29 19.9 °C 9.8 °C 1009 hPa SSW 11.1 km/h 12.9 km/h 52% 0 mm 0.00 W/m2
02:34 19.9 °C 9.8 °C 1009 hPa SSW 11.1 km/h 12.9 km/h 52% 0 mm 0.00 W/m2
02:38 19.8 °C 9.7 °C 1009 hPa SSW 9.7 km/h 11.3 km/h 52% 0 mm 0.00 W/m2
02:44 19.8 °C 9.7 °C 1009 hPa SSW 9.7 km/h 12.9 km/h 52% 0 mm 0.00 W/m2
02:48 19.8 °C 9.7 °C 1009 hPa SSW 9.7 km/h 12.9 km/h 52% 0 mm 0.00 W/m2
02:54 19.8 °C 9.7 °C 1009.4 hPa SSW 6.4 km/h 12.9 km/h 52% 0 mm 0.00 W/m2
02:58 19.8 °C 9.7 °C 1009 hPa SSW 6.4 km/h 12.9 km/h 52% 0 mm 0.00 W/m2
03:04 19.7 °C 9.9 °C 1009 hPa SSW 9.7 km/h 14.5 km/h 53% 0 mm 0.00 W/m2
03:08 19.7 °C 9.9 °C 1009 hPa SSW 7.9 km/h 11.3 km/h 53% 0 mm 0.00 W/m2
03:14 19.6 °C 9.8 °C 1009 hPa SSW 9.7 km/h 11.3 km/h 53% 0 mm 0.00 W/m2
03:18 19.4 °C 9.6 °C 1009 hPa SSW 6.4 km/h 11.3 km/h 53% 0 mm 0.00 W/m2
03:24 19.2 °C 9.7 °C 1009 hPa SSW 6.4 km/h 9.7 km/h 54% 0 mm 0.00 W/m2
03:28 19.2 °C 9.7 °C 1009 hPa SSW 7.9 km/h 11.3 km/h 54% 0 mm 0.00 W/m2
03:34 19 °C 9.8 °C 1009 hPa SSW 7.9 km/h 9.7 km/h 55% 0 mm 0.00 W/m2
03:39 19 °C 9.8 °C 1009 hPa SSW 9.7 km/h 11.3 km/h 55% 0 mm 0.00 W/m2
03:43 19 °C 9.8 °C 1009 hPa SSW 7.9 km/h 12.9 km/h 55% 0 mm 0.00 W/m2
03:49 19.1 °C 9.8 °C 1009 hPa SSW 7.9 km/h 12.9 km/h 55% 0 mm 0.00 W/m2
03:54 19.1 °C 9.8 °C 1009 hPa SSW 7.9 km/h 11.3 km/h 55% 0 mm 0.00 W/m2
03:58 18.9 °C 9.7 °C 1009 hPa SSW 9.7 km/h 11.3 km/h 55% 0 mm 0.00 W/m2
04:04 18.8 °C 9.6 °C 1009 hPa SSW 11.1 km/h 11.3 km/h 55% 0 mm 0.00 W/m2
04:08 18.6 °C 9.6 °C 1009 hPa SSW 9.7 km/h 9.7 km/h 56% 0 mm 0.00 W/m2
04:14 18.5 °C 9.8 °C 1009 hPa SSW 7.9 km/h 11.3 km/h 57% 0 mm 0.00 W/m2
04:18 18.5 °C 9.8 °C 1009 hPa SSW 9.7 km/h 9.7 km/h 57% 0 mm 0.00 W/m2
04:24 18.4 °C 9.7 °C 1009 hPa SSW 7.9 km/h 9.7 km/h 57% 0 mm 0.00 W/m2
04:28 18.3 °C 9.6 °C 1009 hPa SSW 9.7 km/h 9.7 km/h 57% 0 mm 0.00 W/m2
04:32 18.3 °C 9.6 °C 1009 hPa SSW 7.9 km/h 9.7 km/h 57% 0 mm 0.00 W/m2
04:39 18.4 °C 10 °C 1009 hPa SSW 6.4 km/h 11.3 km/h 58% 0 mm 0.00 W/m2
04:43 18.5 °C 9.8 °C 1009 hPa SSW 4.7 km/h 9.7 km/h 57% 0 mm 0.00 W/m2
04:49 18.4 °C 9.7 °C 1009 hPa SSW 7.9 km/h 9.7 km/h 57% 0 mm 0.00 W/m2
04:53 18.4 °C 9.7 °C 1009 hPa SSW 13 km/h 12.9 km/h 57% 0 mm 0.00 W/m2
04:59 18.3 °C 9.6 °C 1009 hPa SSW 9.7 km/h 11.3 km/h 57% 0 mm 0.00 W/m2
05:04 18.2 °C 9.8 °C 1009 hPa SSW 7.9 km/h 9.7 km/h 58% 0 mm 0.00 W/m2
05:08 18.2 °C 9.8 °C 1009 hPa SSW 9.7 km/h 11.3 km/h 58% 0 mm 0.00 W/m2
05:14 18.1 °C 9.7 °C 1009 hPa SSW 6.4 km/h 9.7 km/h 58% 0 mm 0.00 W/m2
05:18 18 °C 9.9 °C 1009 hPa SSW 6.4 km/h 8 km/h 59% 0 mm 0.00 W/m2
05:24 17.8 °C 9.7 °C 1009 hPa SSW 7.9 km/h 9.7 km/h 59% 0 mm 0.00 W/m2
05:28 17.6 °C 9.7 °C 1009 hPa SSW 6.4 km/h 9.7 km/h 60% 0 mm 0.00 W/m2
05:33 17.5 °C 9.6 °C 1009.4 hPa SSW 6.4 km/h 9.7 km/h 60% 0 mm 0.00 W/m2
05:39 17.2 °C 9.6 °C 1009.4 hPa SSW 7.9 km/h 9.7 km/h 61% 0 mm 0.00 W/m2
05:43 17.1 °C 9.5 °C 1009.4 hPa SSW 7.9 km/h 11.3 km/h 61% 0 mm 0.00 W/m2
05:49 17.2 °C 9.6 °C 1009.4 hPa SSW 7.9 km/h 11.3 km/h 61% 0 mm 0.00 W/m2
05:54 17.3 °C 9.7 °C 1009.4 hPa SSW 7.9 km/h 9.7 km/h 61% 0 mm 0.00 W/m2
05:58 17.3 °C 9.7 °C 1009.7 hPa SSW 6.4 km/h 9.7 km/h 61% 0 mm 0.00 W/m2
06:04 17.3 °C 9.7 °C 1009.7 hPa SSW 6.4 km/h 8 km/h 61% 0 mm 0.00 W/m2
06:08 17.3 °C 9.7 °C 1009.7 hPa SSW 4.7 km/h 6.4 km/h 61% 0 mm 0.00 W/m2
06:14 17.2 °C 9.6 °C 1009.7 hPa SSW 6.4 km/h 6.4 km/h 61% 0 mm 0.00 W/m2
06:18 17.1 °C 9.5 °C 1010 hPa SSW 3.2 km/h 6.4 km/h 61% 0 mm 0.00 W/m2
06:23 16.9 °C 9.3 °C 1010 hPa SSW 3.2 km/h 4.8 km/h 61% 0 mm 0.00 W/m2
06:29 16.7 °C 9.4 °C 1010 hPa Calm     62% 0 mm 0.00 W/m2
06:34 16.7 °C 9.6 °C 1010 hPa Calm     63% 0 mm 0.00 W/m2
06:38 16.7 °C 9.6 °C 1010 hPa Calm     63% 0 mm 0.00 W/m2
06:43 16.8 °C 9.7 °C 1010 hPa Calm     63% 0 mm 0.00 W/m2
06:49 16.7 °C 9.6 °C 1010 hPa Calm     63% 0 mm 0.00 W/m2
06:54 16.8 °C 9.5 °C 1010 hPa Calm     62% 0 mm 0.00 W/m2
06:58 16.7 °C 9.4 °C 1010 hPa Calm     62% 0 mm 5.00 W/m2
07:02 16.7 °C 9.6 °C 1010 hPa SSW 1.4 km/h 1.6 km/h 63% 0 mm 9.00 W/m2
07:08 16.7 °C 9.6 °C 1010.4 hPa SSW 6.4 km/h 6.4 km/h 63% 0 mm 14.00 W/m2
07:13 16.8 °C 9.7 °C 1010.4 hPa SSW 7.9 km/h 8 km/h 63% 0 mm 18.00 W/m2
07:19 16.8 °C 9.7 °C 1010.4 hPa SSW 6.4 km/h 8 km/h 63% 0 mm 35.00 W/m2
07:23 16.9 °C 9.6 °C 1010.4 hPa SSW 6.4 km/h 8 km/h 62% 0 mm 46.00 W/m2
07:29 17.1 °C 9.8 °C 1010.7 hPa SSW 6.4 km/h 6.4 km/h 62% 0 mm 63.00 W/m2
07:33 17.3 °C 9.9 °C 1010.7 hPa Calm   3.2 km/h 62% 0 mm 79.00 W/m2
07:38 17.5 °C 9.9 °C 1010.7 hPa Calm     61% 0 mm 97.00 W/m2
07:44 17.9 °C 10 °C 1010.7 hPa SSW 6.4 km/h 6.4 km/h 60% 0 mm 123.00 W/m2
07:48 18.2 °C 10.1 °C 1010.7 hPa SSW 7.9 km/h 9.7 km/h 59% 0 mm 142.00 W/m2
07:53 18.5 °C 10.1 °C 1010.7 hPa SSW 9.7 km/h 11.3 km/h 58% 0 mm 162.00 W/m2
07:59 18.8 °C 10.1 °C 1011.1 hPa SSW 7.9 km/h 12.9 km/h 57% 0 mm 188.00 W/m2
08:03 19 °C 10.3 °C 1011.1 hPa SSW 13 km/h 16.1 km/h 57% 0 mm 207.00 W/m2
08:09 19.3 °C 10.3 °C 1011.1 hPa SSW 11.1 km/h 14.5 km/h 56% 0 mm 234.00 W/m2
08:13 19.4 °C 10.4 °C 1011.1 hPa SSW 11.1 km/h 14.5 km/h 56% 0 mm 246.00 W/m2
08:19 19.7 °C 10.7 °C 1011.4 hPa SSW 11.1 km/h 16.1 km/h 56% 0 mm 269.00 W/m2
08:23 19.8 °C 10.5 °C 1011.4 hPa SSW 11.1 km/h 14.5 km/h 55% 0 mm 281.00 W/m2
08:27 19.9 °C 10.6 °C 1011.4 hPa SSW 11.1 km/h 14.5 km/h 55% 0 mm 297.00 W/m2
08:33 20.2 °C 10.6 °C 1011.4 hPa SSW 11.1 km/h 12.9 km/h 54% 0 mm 318.00 W/m2
08:39 20.3 °C 10.7 °C 1011.4 hPa SSW 7.9 km/h 12.9 km/h 54% 0 mm 338.00 W/m2
08:43 20.6 °C 10.7 °C 1011.4 hPa SSW 7.9 km/h 11.3 km/h 53% 0 mm 353.00 W/m2
08:49 20.7 °C 10.8 °C 1011.4 hPa SSW 11.1 km/h 11.3 km/h 53% 0 mm 374.00 W/m2
08:54 21 °C 10.5 °C 1011.7 hPa SSW 9.7 km/h 12.9 km/h 51% 0 mm 388.00 W/m2
08:58 21.1 °C 10.6 °C 1011.7 hPa SSW 9.7 km/h 12.9 km/h 51% 0 mm 403.00 W/m2
09:04 21.4 °C 10.5 °C 1011.4 hPa SSW 7.9 km/h 12.9 km/h 50% 0 mm 424.00 W/m2
09:08 21.5 °C 10.6 °C 1011.4 hPa SSW 11.1 km/h 12.9 km/h 50% 0 mm 438.00 W/m2
09:14 21.7 °C 10.5 °C 1011.4 hPa SSW 4.7 km/h 8 km/h 49% 0 mm 457.00 W/m2
09:18 21.9 °C 10.4 °C 1011.7 hPa SSW 9.7 km/h 12.9 km/h 48% 0 mm 471.00 W/m2
09:24 22.2 °C 10.7 °C 1011.7 hPa SSW 7.9 km/h 11.3 km/h 48% 0 mm 490.00 W/m2
09:28 22.4 °C 10.5 °C 1011.7 hPa SSW 7.9 km/h 9.7 km/h 47% 0 mm 504.00 W/m2
09:34 22.7 °C 10.5 °C 1011.7 hPa SSW 6.4 km/h 11.3 km/h 46% 0 mm 522.00 W/m2
09:38 22.8 °C 10.6 °C 1011.7 hPa SSW 11.1 km/h 12.9 km/h 46% 0 mm 538.00 W/m2
09:44 23.1 °C 10.5 °C 1011.7 hPa SSW 7.9 km/h 11.3 km/h 45% 0 mm 550.00 W/m2
09:48 23.3 °C 10.4 °C 1011.7 hPa SSW 6.4 km/h 11.3 km/h 44% 0 mm 564.00 W/m2
09:53 23.4 °C 10.5 °C 1011.7 hPa SSW 9.7 km/h 11.3 km/h 44% 0 mm 575.00 W/m2
09:57 23.5 °C 10.5 °C 1011.7 hPa SSW 9.7 km/h 12.9 km/h 44% 0 mm 585.00 W/m2
10:03 23.9 °C 10.6 °C 1011.7 hPa SSW 13 km/h 14.5 km/h 43% 0 mm 606.00 W/m2
10:09 24 °C 10.6 °C 1011.7 hPa SSW 7.9 km/h 14.5 km/h 43% 0 mm 619.00 W/m2
10:11 24.1 °C 10.4 °C 1011.7 hPa SSW 7.9 km/h 11.3 km/h 42% 0 mm 628.00 W/m2
10:17 24.3 °C 10.6 °C 1011.7 hPa SSW 9.7 km/h 11.3 km/h 42% 0 mm 643.00 W/m2
10:24 24.5 °C 10.4 °C 1011.7 hPa SSW 6.4 km/h 14.5 km/h 41% 0 mm 659.00 W/m2
10:28 24.6 °C 10.5 °C 1011.7 hPa SSW 6.4 km/h 11.3 km/h 41% 0 mm 670.00 W/m2
10:34 25.2 °C 10.6 °C 1011.7 hPa SSW 9.7 km/h 12.9 km/h 40% 0 mm 686.00 W/m2
10:38 25.5 °C 10.5 °C 1011.7 hPa SSW 6.4 km/h 12.9 km/h 39% 0 mm 693.00 W/m2
10:42 25.4 °C 10.4 °C 1011.7 hPa SSW 7.9 km/h 12.9 km/h 39% 0 mm 705.00 W/m2
10:46 25.7 °C 10.3 °C 1011.7 hPa SSW 7.9 km/h 11.3 km/h 38% 0 mm 714.00 W/m2
10:52 25.8 °C 10.4 °C 1011.7 hPa SSW 6.4 km/h 11.3 km/h 38% 0 mm 728.00 W/m2
10:58 26 °C 10.2 °C 1011.7 hPa SSW 9.7 km/h 11.3 km/h 37% 0 mm 740.00 W/m2
11:03 26.1 °C 10.3 °C 1011.7 hPa SSW 9.7 km/h 11.3 km/h 37% 0 mm 747.00 W/m2
11:09 26.4 °C 10.1 °C 1011.7 hPa SSW 11.1 km/h 14.5 km/h 36% 0 mm 756.00 W/m2
11:13 26.6 °C 9.9 °C 1011.7 hPa SSW 9.7 km/h 11.3 km/h 35% 0 mm 768.00 W/m2
11:19 26.6 °C 10.3 °C 1011.7 hPa SSW 9.7 km/h 12.9 km/h 36% 0 mm 777.00 W/m2
11:23 27 °C 10.2 °C 1011.4 hPa SSW 14.3 km/h 14.5 km/h 35% 0 mm 788.00 W/m2
11:27 27.1 °C 9.9 °C 1011.4 hPa SSW 6.4 km/h 11.3 km/h 34% 0 mm 793.00 W/m2
11:33 27.2 °C 10 °C 1011.4 hPa SSW 6.4 km/h 12.9 km/h 34% 0 mm 803.00 W/m2
11:37 27.3 °C 9.6 °C 1011.4 hPa SSW 6.4 km/h 9.7 km/h 33% 0 mm 812.00 W/m2
11:43 27.6 °C 9.9 °C 1011.4 hPa SSW 7.9 km/h 9.7 km/h 33% 0 mm 821.00 W/m2
11:47 27.7 °C 9.5 °C 1011.1 hPa SSW 9.7 km/h 12.9 km/h 32% 0 mm 826.00 W/m2
11:53 27.8 °C 9.6 °C 1011.4 hPa Calm   6.4 km/h 32% 0 mm 833.00 W/m2
11:58 27.9 °C 9.7 °C 1011.1 hPa Calm     32% 0 mm 840.00 W/m2
12:02 28.2 °C 9.5 °C 1011.1 hPa SSW 4.7 km/h 8 km/h 31% 0 mm 844.00 W/m2
12:08 28.3 °C 9.6 °C 1011.1 hPa SSW 4.7 km/h 6.4 km/h 31% 0 mm 849.00 W/m2
12:12 28.5 °C 9.2 °C 1010.7 hPa SSW 6.4 km/h 9.7 km/h 30% 0 mm 856.00 W/m2
12:19 28.7 °C 9.4 °C 1010.7 hPa Calm     30% 0 mm 856.00 W/m2
12:23 29.1 °C 9.3 °C 1010.7 hPa Calm     29% 0 mm 861.00 W/m2
12:27 29.4 °C 9.5 °C 1010.7 hPa SSW 7.9 km/h 9.7 km/h 29% 0 mm 861.00 W/m2
12:33 29.6 °C 8.6 °C 1010.7 hPa Calm   9.7 km/h 27% 0 mm 865.00 W/m2
12:37 29.7 °C 8.7 °C 1010.4 hPa Calm     27% 0 mm 854.00 W/m2
12:44 29.7 °C 8.7 °C 1010.4 hPa Calm   9.7 km/h 27% 0 mm 870.00 W/m2
12:48 29.8 °C 8.8 °C 1010.4 hPa Calm     27% 0 mm 870.00 W/m2
12:52 29.9 °C 8.3 °C 1010.4 hPa SSW 6.4 km/h 11.3 km/h 26% 0 mm 872.00 W/m2
12:58 30.2 °C 8 °C 1010.4 hPa SSW 7.9 km/h 8 km/h 25% 0 mm 874.00 W/m2
13:03 30.3 °C 7.5 °C 1010 hPa Calm   6.4 km/h 24% 0 mm 875.00 W/m2
13:09 30.7 °C 7.2 °C 1010 hPa Calm     23% 0 mm 870.00 W/m2
13:13 30.9 °C 6 °C 1010 hPa Calm     21% 0 mm 870.00 W/m2
13:17 31.2 °C 6.3 °C 1010 hPa Calm     21% 0 mm 870.00 W/m2
13:24 31.5 °C 5.1 °C 1010 hPa Calm     19% 0 mm 856.00 W/m2
13:28 31.7 °C 5.2 °C 1009.7 hPa Calm     19% 0 mm 860.00 W/m2
13:34 31.8 °C 6.1 °C 1009.7 hPa SSW 7.9 km/h 11.3 km/h 20% 0 mm 847.00 W/m2
13:38 31.7 °C 6 °C 1009.7 hPa SSW 4.7 km/h 9.7 km/h 20% 0 mm 838.00 W/m2
13:42 31.7 °C 6 °C 1009.7 hPa SSW 7.9 km/h 8 km/h 20% 0 mm 844.00 W/m2
13:49 31.7 °C 5.2 °C 1009.4 hPa Calm     19% 0 mm 840.00 W/m2
13:53 31.7 °C 6 °C 1009.4 hPa SSW 13 km/h 12.9 km/h 20% 0 mm 835.00 W/m2
13:57 31.7 °C 6 °C 1009.4 hPa SSW 7.9 km/h 11.3 km/h 20% 0 mm 826.00 W/m2
14:04 31.6 °C 6.6 °C 1009.4 hPa SSW 16.3 km/h 17.7 km/h 21% 0 mm 810.00 W/m2
14:08 31.6 °C 6.6 °C 1009.4 hPa SSW 7.9 km/h 11.3 km/h 21% 0 mm 810.00 W/m2
14:14 31.7 °C 6.7 °C 1009 hPa Calm   11.3 km/h 21% 0 mm 807.00 W/m2
14:18 31.8 °C 6.1 °C 1009 hPa Calm     20% 0 mm 793.00 W/m2
14:23 31.9 °C 6.9 °C 1009 hPa SSW 13 km/h 16.1 km/h 21% 0 mm 786.00 W/m2
14:29 31.8 °C 6.1 °C 1009 hPa SSW 9.7 km/h 14.5 km/h 20% 0 mm 775.00 W/m2
14:33 31.7 °C 6 °C 1009 hPa Calm   9.7 km/h 20% 0 mm 775.00 W/m2
14:37 31.9 °C 6.1 °C 1008.7 hPa SSW 1.4 km/h 9.7 km/h 20% 0 mm 770.00 W/m2
14:43 32.1 °C 6.3 °C 1008.7 hPa SSW 9.7 km/h 17.7 km/h 20% 0 mm 759.00 W/m2
14:47 32.3 °C 6.5 °C 1008.7 hPa SSW 14.3 km/h 16.1 km/h 20% 0 mm 752.00 W/m2
14:54 32.1 °C 6.3 °C 1008.7 hPa SSW 6.4 km/h 16.1 km/h 20% 0 mm 738.00 W/m2
14:58 32.1 °C 5.6 °C 1008.4 hPa SSW 7.9 km/h 11.3 km/h 19% 0 mm 729.00 W/m2
15:04 32.2 °C 6.4 °C 1008.4 hPa SSW 16.3 km/h 16.1 km/h 20% 0 mm 715.00 W/m2
15:08 32.4 °C 5.8 °C 1008.4 hPa SSW 9.7 km/h 11.3 km/h 19% 0 mm 708.00 W/m2
15:12 32.5 °C 5.9 °C 1008.4 hPa SSW 9.7 km/h 19.3 km/h 19% 0 mm 701.00 W/m2
15:19 32.7 °C 5.3 °C 1008.4 hPa SSW 4.7 km/h 11.3 km/h 18% 0 mm 684.00 W/m2
15:23 32.7 °C 5.3 °C 1008 hPa SSW 13 km/h 12.9 km/h 18% 0 mm 673.00 W/m2
15:29 32.6 °C 5.2 °C 1008 hPa Calm     18% 0 mm 659.00 W/m2
15:33 32.7 °C 5.3 °C 1008 hPa Calm   9.7 km/h 18% 0 mm 649.00 W/m2
15:39 32.6 °C 4.4 °C 1008 hPa SSW 6.4 km/h 12.9 km/h 17% 0 mm 626.00 W/m2
15:43 32.5 °C 4.3 °C 1008 hPa SSW 3.2 km/h 9.7 km/h 17% 0 mm 612.00 W/m2
15:49 32.7 °C 4.5 °C 1007.7 hPa SSW 11.1 km/h 14.5 km/h 17% 0 mm 601.00 W/m2
15:53 32.8 °C 3.7 °C 1007.7 hPa SSW 7.9 km/h 14.5 km/h 16% 0 mm 591.00 W/m2
15:59 32.7 °C 3.6 °C 1007.7 hPa Calm   9.7 km/h 16% 0 mm 568.00 W/m2
16:03 32.7 °C 3.6 °C 1007.7 hPa SSW 6.4 km/h 11.3 km/h 16% 0 mm 557.00 W/m2
16:08 32.9 °C 3.8 °C 1007.7 hPa SSW 7.9 km/h 14.5 km/h 16% 0 mm 554.00 W/m2
16:14 33.1 °C 3 °C 1007.7 hPa SSW 9.7 km/h 14.5 km/h 15% 0 mm 536.00 W/m2
16:18 33.2 °C 3.1 °C 1007.7 hPa SSW 6.4 km/h 12.9 km/h 15% 0 mm 519.00 W/m2
16:24 33.2 °C 3.1 °C 1007.7 hPa SSW 7.9 km/h 9.7 km/h 15% 0 mm 497.00 W/m2
16:28 33.2 °C 2.1 °C 1007.7 hPa SSW 4.7 km/h 14.5 km/h 14% 0 mm 485.00 W/m2
16:39 33.2 °C 2.1 °C 1007.3 hPa SSW 9.7 km/h 11.3 km/h 14% 0 mm 454.00 W/m2
16:43 33.2 °C 4 °C 1007.3 hPa SSW 19.5 km/h 19.3 km/h 16% 0 mm 443.00 W/m2
16:49 33.2 °C 4.9 °C 1007.3 hPa SSW 16.3 km/h 16.1 km/h 17% 0 mm 420.00 W/m2
16:53 33.1 °C 4.8 °C 1007.3 hPa SSW 11.1 km/h 14.5 km/h 17% 0 mm 410.00 W/m2
16:59 33 °C 4.7 °C 1007.3 hPa SSW 11.1 km/h 19.3 km/h 17% 0 mm 376.00 W/m2
17:03 32.9 °C 6.2 °C 1007.3 hPa SSW 16.3 km/h 17.7 km/h 19% 0 mm 367.00 W/m2
17:09 32.9 °C 5.4 °C 1007.3 hPa SSW 4.7 km/h 9.7 km/h 18% 0 mm 346.00 W/m2
17:13 32.8 °C 5.4 °C 1007.3 hPa SSW 9.7 km/h 17.7 km/h 18% 0 mm 330.00 W/m2
17:18 32.8 °C 6.1 °C 1007.3 hPa SSW 9.7 km/h 12.9 km/h 19% 0 mm 309.00 W/m2
17:24 32.8 °C 5.4 °C 1007.3 hPa SSW 7.9 km/h 16.1 km/h 18% 0 mm 292.00 W/m2
17:28 32.7 °C 6.1 °C 1007.3 hPa SSW 14.3 km/h 17.7 km/h 19% 0 mm 281.00 W/m2
17:34 32.7 °C 6.1 °C 1007.3 hPa SSW 11.1 km/h 16.1 km/h 19% 0 mm 260.00 W/m2
17:38 32.6 °C 6 °C 1007.3 hPa SSW 17.7 km/h 19.3 km/h 19% 0 mm 246.00 W/m2
17:44 32.5 °C 5.9 °C 1007.3 hPa SSW 16.3 km/h 20.9 km/h 19% 0 mm 221.00 W/m2
17:48 32.4 °C 5.8 °C 1007.3 hPa SSW 13 km/h 19.3 km/h 19% 0 mm 195.00 W/m2
17:54 32.3 °C 5 °C 1007.3 hPa SSW 14.3 km/h 22.5 km/h 18% 0 mm 172.00 W/m2
17:58 32.2 °C 4.9 °C 1007.3 hPa SSW 17.7 km/h 22.5 km/h 18% 0 mm 153.00 W/m2
18:02 32.2 °C 4.9 °C 1007.3 hPa SSW 13 km/h 17.7 km/h 18% 0 mm 132.00 W/m2
18:09 32.1 °C 4.8 °C 1007.3 hPa SSW 13 km/h 16.1 km/h 18% 0 mm 107.00 W/m2
18:13 32.1 °C 4.8 °C 1007.3 hPa SSW 17.7 km/h 19.3 km/h 18% 0 mm 90.00 W/m2
18:19 31.9 °C 4.6 °C 1007.7 hPa SSW 17.7 km/h 19.3 km/h 18% 0 mm 72.00 W/m2
18:23 31.8 °C 4.6 °C 1007.7 hPa SSW 17.7 km/h 24.1 km/h 18% 0 mm 60.00 W/m2
18:29 31.6 °C 4.4 °C 1007.7 hPa SSW 17.7 km/h 17.7 km/h 18% 0 mm 42.00 W/m2
18:33 31.4 °C 4.2 °C 1007.7 hPa SSW 9.7 km/h 19.3 km/h 18% 0 mm 35.00 W/m2
18:39 31.3 °C 4.1 °C 1007.7 hPa SSW 14.3 km/h 20.9 km/h 18% 0 mm 21.00 W/m2
18:43 31.2 °C 4.1 °C 1007.7 hPa SSW 16.3 km/h 19.3 km/h 18% 0 mm 16.00 W/m2
18:49 30.9 °C 3.8 °C 1007.7 hPa SSW 11.1 km/h 17.7 km/h 18% 0 mm 11.00 W/m2
18:53 30.8 °C 3.7 °C 1008 hPa SSW 14.3 km/h 17.7 km/h 18% 0 mm 9.00 W/m2
18:59 30.6 °C 3.6 °C 1008 hPa SSW 11.1 km/h 22.5 km/h 18% 0 mm 5.00 W/m2
19:03 30.4 °C 3.4 °C 1008 hPa SSW 16.3 km/h 20.9 km/h 18% 0 mm 0.00 W/m2
19:09 30.2 °C 3.3 °C 1008 hPa SSW 9.7 km/h 12.9 km/h 18% 0 mm 0.00 W/m2
19:14 30.1 °C 3.2 °C 1008 hPa SSW 9.7 km/h 19.3 km/h 18% 0 mm 0.00 W/m2
19:18 30 °C 3.1 °C 1008.4 hPa SSW 11.1 km/h 14.5 km/h 18% 0 mm 0.00 W/m2
19:24 29.7 °C 2.8 °C 1008.4 hPa SSW 13 km/h 14.5 km/h 18% 0 mm 0.00 W/m2
19:28 29.6 °C 2.8 °C 1008.4 hPa SSW 9.7 km/h 12.9 km/h 18% 0 mm 0.00 W/m2
19:34 29.4 °C 2.6 °C 1008.4 hPa SSW 9.7 km/h 12.9 km/h 18% 0 mm 0.00 W/m2
19:38 29.3 °C 2.5 °C 1008.4 hPa SSW 13 km/h 14.5 km/h 18% 0 mm 0.00 W/m2
19:44 29.2 °C 2.4 °C 1008.4 hPa SSW 7.9 km/h 12.9 km/h 18% 0 mm 0.00 W/m2
19:48 29.1 °C 2.4 °C 1008.7 hPa SSW 7.9 km/h 11.3 km/h 18% 0 mm 0.00 W/m2
19:54 28.9 °C 2.2 °C 1008.7 hPa SSW 7.9 km/h 11.3 km/h 18% 0 mm 0.00 W/m2
19:59 28.8 °C 2.1 °C 1008.7 hPa SSW 9.7 km/h 11.3 km/h 18% 0 mm 0.00 W/m2
20:03 28.7 °C 2 °C 1008.7 hPa SSW 7.9 km/h 11.3 km/h 18% 0 mm 0.00 W/m2
20:09 28.6 °C 2 °C 1009 hPa SSW 6.4 km/h 11.3 km/h 18% 0 mm 0.00 W/m2
Canyon Roadhouse, Fishriver Canyon, Namibia
Compliments of Weather Underground - 3 mb